| time (UTC) | temp F | wind direction | speed MPH | gust MPH | rain 1hr in | rain 24hr in | rain mn in | humidity % | barometer mb |
| 20260906172044 | 53 | 0 | 3.0 | 9.0 | 0.00 | 0.00 | 0.00 | 79 | 1011.3 |
| 20260906171609 | 53 | 253 | 3.0 | 9.0 | 0.00 | 0.00 | 0.00 | 79 | 1011.4 |
| 20260906171042 | 53 | 243 | 3.0 | 9.0 | 0.00 | 0.00 | 0.00 | 79 | 1011.3 |
| 20260906170542 | 53 | 223 | 3.0 | 12.0 | 0.00 | 0.00 | 0.00 | 79 | 1011.2 |
| 20260906165542 | 53 | 248 | 4.0 | 12.0 | 0.00 | 0.00 | 0.00 | 80 | 1011.3 |
| 20260906165042 | 53 | 229 | 4.0 | 10.0 | 0.00 | 0.00 | 0.00 | 80 | 1011.4 |
| 20260906164603 | 53 | 239 | 3.0 | 8.0 | 0.00 | 0.00 | 0.00 | 80 | 1011.3 |
| 20260906164041 | 53 | 240 | 4.0 | 9.0 | 0.00 | 0.00 | 0.00 | 80 | 1011.4 |
| 20260906163542 | 53 | 282 | 3.0 | 9.0 | 0.00 | 0.00 | 0.00 | 80 | 1011.2 |
| 20260906163059 | 53 | 300 | 3.0 | 7.0 | 0.00 | 0.00 | 0.00 | 80 | 1011.3 |
| 20260906162542 | 53 | 318 | 2.0 | 8.0 | 0.00 | 0.00 | 0.00 | 79 | 1011.3 |
| 20260906162047 | 53 | 245 | 3.0 | 10.0 | 0.00 | 0.00 | 0.00 | 79 | 1011.3 |
| 20260906161602 | 53 | 246 | 4.0 | 10.0 | 0.00 | 0.00 | 0.00 | 79 | 1011.4 |
| 20260906161042 | 53 | 228 | 3.0 | 8.0 | 0.00 | 0.00 | 0.00 | 79 | 1011.3 |
| 20260906160542 | 53 | 257 | 2.0 | 9.0 | 0.00 | 0.00 | 0.00 | 79 | 1011.3 |
| 20260906160056 | 54 | 239 | 4.0 | 9.0 | 0.00 | 0.00 | 0.00 | 79 | 1011.3 |
| 20260906155544 | 54 | 286 | 2.0 | 7.0 | 0.00 | 0.00 | 0.00 | 79 | 1011.4 |
| 20260906155045 | 54 | 243 | 2.0 | 8.0 | 0.00 | 0.00 | 0.00 | 79 | 1011.3 |
| 20260906154604 | 54 | 270 | 2.0 | 8.0 | 0.00 | 0.00 | 0.00 | 79 | 1011.4 |
| 20260906154041 | 54 | 236 | 3.0 | 7.0 | 0.00 | 0.00 | 0.00 | 79 | 1011.5 |
| 20260906153541 | 54 | 244 | 2.0 | 6.0 | 0.00 | 0.00 | 0.00 | 79 | 1011.4 |
| 20260906153059 | 54 | 311 | 2.0 | 6.0 | 0.00 | 0.00 | 0.00 | 78 | 1011.3 |
| 20260906152545 | 55 | 232 | 2.0 | 7.0 | 0.00 | 0.00 | 0.00 | 78 | 1011.4 |
| 20260906152043 | 55 | 286 | 1.0 | 7.0 | 0.00 | 0.00 | 0.00 | 77 | 1011.3 |
| 20260906151554 | 55 | 251 | 3.0 | 7.0 | 0.00 | 0.00 | 0.00 | 77 | 1011.2 |
| 20260906151042 | 55 | 256 | 3.0 | 5.0 | 0.00 | 0.00 | 0.00 | 76 | 1011.2 |
| 20260906150542 | 55 | 331 | 1.0 | 7.0 | 0.00 | 0.00 | 0.00 | 76 | 1011.1 |
| 20260906150104 | 55 | 190 | 3.0 | 9.0 | 0.00 | 0.00 | 0.00 | 76 | 1011.1 |
| 20260906145542 | 55 | 254 | 3.0 | 9.0 | 0.00 | 0.00 | 0.00 | 76 | 1011.1 |
| 20260906145043 | 55 | 250 | 2.0 | 8.0 | 0.00 | 0.00 | 0.00 | 75 | 1011.0 |
| 20260906144606 | 55 | 265 | 1.0 | 4.0 | 0.00 | 0.00 | 0.00 | 75 | 1011.1 |
| 20260906144042 | 55 | 180 | 2.0 | 5.0 | 0.00 | 0.00 | 0.00 | 75 | 1011.0 |
| 20260906143542 | 55 | 241 | 1.0 | 7.0 | 0.00 | 0.00 | 0.00 | 75 | 1010.9 |
| 20260906143055 | 55 | 168 | 2.0 | 7.0 | 0.00 | 0.00 | 0.00 | 75 | 1010.9 |
| 20260906142543 | 55 | 287 | 2.0 | 4.0 | 0.00 | 0.00 | 0.00 | 74 | 1011.0 |
| 20260906142045 | 55 | 271 | 2.0 | 4.0 | 0.00 | 0.00 | 0.00 | 74 | 1011.0 |
| 20260906141552 | 56 | 12 | 0.0 | 6.0 | 0.00 | 0.00 | 0.00 | 73 | 1010.9 |
| 20260906141044 | 56 | 350 | 1.0 | 9.0 | 0.00 | 0.00 | 0.00 | 72 | 1011.0 |
| 20260906140542 | 56 | 304 | 2.0 | 9.0 | 0.00 | 0.00 | 0.00 | 72 | 1010.9 |
| 20260906140104 | 56 | 310 | 1.0 | 4.0 | 0.00 | 0.00 | 0.00 | 72 | 1010.9 |
| 20260906135543 | 56 | 257 | 2.0 | 5.0 | 0.00 | 0.00 | 0.00 | 71 | 1010.9 |
| 20260906135041 | 57 | 260 | 1.0 | 5.0 | 0.00 | 0.00 | 0.00 | 71 | 1010.9 |
| 20260906134554 | 57 | 19 | 2.0 | 5.0 | 0.00 | 0.00 | 0.00 | 70 | 1010.8 |
| 20260906134042 | 57 | 323 | 1.0 | 6.0 | 0.00 | 0.00 | 0.00 | 70 | 1010.8 |
| 20260906133543 | 57 | 248 | 2.0 | 6.0 | 0.00 | 0.00 | 0.00 | 69 | 1010.8 |
| 20260906133101 | 58 | 313 | 3.0 | 4.0 | 0.00 | 0.00 | 0.00 | 68 | 1010.8 |
| 20260906132543 | 58 | 260 | 1.0 | 4.0 | 0.00 | 0.00 | 0.00 | 68 | 1010.7 |
| 20260906132046 | 58 | 0 | 0.0 | 3.0 | 0.00 | 0.00 | 0.00 | 69 | 1010.6 |
| 20260906131602 | 58 | 5 | 0.0 | 5.0 | 0.00 | 0.00 | 0.00 | 69 | 1010.5 |
| 20260906131042 | 58 | 13 | 1.0 | 5.0 | 0.00 | 0.00 | 0.00 | 69 | 1010.6 |
| 20260906130542 | 58 | 18 | 1.0 | 5.0 | 0.00 | 0.00 | 0.00 | 68 | 1010.6 |
| 20260906130058 | 58 | 328 | 0.0 | 3.0 | 0.00 | 0.00 | 0.00 | 68 | 1010.6 |
| 20260906125545 | 58 | 0 | 1.0 | 3.0 | 0.00 | 0.00 | 0.00 | 67 | 1010.6 |
| 20260906125046 | 58 | 0 | 0.0 | 2.0 | 0.00 | 0.00 | 0.00 | 67 | 1010.4 |
| 20260906124602 | 58 | 0 | 0.0 | 3.0 | 0.00 | 0.00 | 0.00 | 67 | 1010.4 |
| 20260906124043 | 58 | 237 | 1.0 | 5.0 | 0.00 | 0.00 | 0.00 | 66 | 1010.4 |
| 20260906123543 | 58 | 269 | 1.0 | 5.0 | 0.00 | 0.00 | 0.00 | 66 | 1010.4 |
| 20260906123104 | 58 | 256 | 2.0 | 5.0 | 0.00 | 0.00 | 0.00 | 66 | 1010.5 |
| 20260906122542 | 59 | 190 | 2.0 | 6.0 | 0.00 | 0.00 | 0.00 | 64 | 1010.6 |
| 20260906122042 | 59 | 246 | 3.0 | 6.0 | 0.00 | 0.00 | 0.00 | 63 | 1010.5 |
| 20260906121600 | 60 | 0 | 0.0 | 3.0 | 0.00 | 0.00 | 0.00 | 62 | 1010.5 |
| 20260906121043 | 61 | 0 | 0.0 | 3.0 | 0.00 | 0.00 | 0.00 | 62 | 1010.4 |
| 20260906120542 | 61 | 103 | 0.0 | 3.0 | 0.00 | 0.00 | 0.00 | 61 | 1010.3 |
| 20260906120101 | 61 | 143 | 0.0 | 3.0 | 0.00 | 0.00 | 0.00 | 60 | 1010.3 |
| 20260906115543 | 62 | 0 | 0.0 | 2.0 | 0.00 | 0.00 | 0.00 | 61 | 1010.3 |
| 20260906115041 | 62 | 0 | 0.0 | 2.0 | 0.00 | 0.00 | 0.00 | 61 | 1010.3 |
| 20260906114556 | 63 | 0 | 1.0 | 3.0 | 0.00 | 0.00 | 0.00 | 60 | 1010.2 |
| 20260906114042 | 63 | 0 | 0.0 | 3.0 | 0.00 | 0.00 | 0.00 | 62 | 1010.2 |
| 20260906113542 | 63 | 0 | 0.0 | 3.0 | 0.00 | 0.00 | 0.00 | 61 | 1010.1 |
| 20260906113106 | 63 | 217 | 0.0 | 0.0 | 0.00 | 0.00 | 0.00 | 60 | 1010.1 |
| 20260906112542 | 63 | 0 | 0.0 | 0.0 | 0.00 | 0.00 | 0.00 | 60 | 1010.1 |
| 20260906112042 | 63 | 0 | 0.0 | 6.0 | 0.00 | 0.00 | 0.00 | 60 | 1010.1 |
| 20260906111600 | 63 | 0 | 1.0 | 6.0 | 0.00 | 0.00 | 0.00 | 60 | 1010.0 |
| 20260906111043 | 63 | 107 | 0.0 | 6.0 | 0.00 | 0.00 | 0.00 | 61 | 1010.0 |
| 20260906110542 | 62 | 0 | 0.0 | 3.0 | 0.00 | 0.00 | 0.00 | 62 | 1010.0 |
| 20260906110054 | 62 | 0 | 1.0 | 3.0 | 0.00 | 0.00 | 0.00 | 62 | 1010.0 |
| 20260906105543 | 62 | 0 | 0.0 | 3.0 | 0.00 | 0.00 | 0.00 | 64 | 1010.0 |
| 20260906105043 | 61 | 0 | 0.0 | 3.0 | 0.00 | 0.00 | 0.00 | 64 | 1010.0 |
| 20260906104621 | 61 | 112 | 0.0 | 3.0 | 0.00 | 0.00 | 0.00 | 62 | 1009.9 |
| 20260906104042 | 61 | 113 | 1.0 | 3.0 | 0.00 | 0.00 | 0.00 | 62 | 1010.0 |
| 20260906103541 | 61 | 0 | 0.0 | 2.0 | 0.00 | 0.00 | 0.00 | 64 | 1010.0 |
| 20260906103056 | 60 | 0 | 0.0 | 3.0 | 0.00 | 0.00 | 0.00 | 65 | 1009.9 |
| 20260906102545 | 60 | 0 | 0.0 | 4.0 | 0.00 | 0.00 | 0.00 | 64 | 1010.0 |
| 20260906102042 | 60 | 117 | 1.0 | 4.0 | 0.00 | 0.00 | 0.00 | 64 | 1009.9 |
| 20260906101554 | 60 | 111 | 2.0 | 4.0 | 0.00 | 0.00 | 0.00 | 64 | 1009.9 |
| 20260906101041 | 59 | 117 | 2.0 | 4.0 | 0.00 | 0.00 | 0.00 | 65 | 1009.9 |
| 20260906100542 | 59 | 116 | 1.0 | 4.0 | 0.00 | 0.00 | 0.00 | 69 | 1010.0 |
| 20260906100052 | 58 | 0 | 0.0 | 7.0 | 0.00 | 0.00 | 0.00 | 71 | 1010.0 |
| 20260906095544 | 57 | 93 | 2.0 | 7.0 | 0.00 | 0.00 | 0.00 | 70 | 1009.9 |
| 20260906095042 | 56 | 118 | 2.0 | 4.0 | 0.00 | 0.00 | 0.00 | 71 | 1009.9 |
| 20260906094641 | 56 | 0 | 0.0 | 1.0 | 0.00 | 0.00 | 0.00 | 73 | 1009.9 |
| 20260906094042 | 55 | 0 | 0.0 | 0.0 | 0.00 | 0.00 | 0.00 | 73 | 1009.9 |
| 20260906093542 | 55 | 0 | 0.0 | 3.0 | 0.00 | 0.00 | 0.00 | 72 | 1009.9 |
| 20260906093105 | 54 | 0 | 0.0 | 3.0 | 0.00 | 0.00 | 0.00 | 73 | 1009.8 |
| 20260906092545 | 54 | 0 | 1.0 | 3.0 | 0.00 | 0.00 | 0.00 | 73 | 1009.8 |
| 20260906092042 | 54 | 0 | 0.0 | 0.0 | 0.00 | 0.00 | 0.00 | 74 | 1009.8 |
| 20260906091555 | 54 | 0 | 0.0 | 0.0 | 0.00 | 0.00 | 0.00 | 75 | 1009.9 |
| 20260906091043 | 54 | 0 | 0.0 | 0.0 | 0.00 | 0.00 | 0.00 | 75 | 1009.8 |
| 20260906090543 | 54 | 0 | 0.0 | 0.0 | 0.00 | 0.00 | 0.00 | 75 | 1009.8 |
| 20260906090054 | 54 | 0 | 0.0 | 0.0 | 0.00 | 0.00 | 0.00 | 75 | 1009.8 |
| 20260906085542 | 54 | 0 | 0.0 | 0.0 | 0.00 | 0.00 | 0.00 | 76 | 1009.7 |
| 20260906085041 | 53 | 0 | 0.0 | 0.0 | 0.00 | 0.00 | 0.00 | 76 | 1009.8 |
| 20260906084600 | 53 | 0 | 0.0 | 0.0 | 0.00 | 0.00 | 0.00 | 76 | 1009.7 |
| 20260906084041 | 53 | 0 | 0.0 | 0.0 | 0.00 | 0.00 | 0.00 | 77 | 1009.7 |
| 20260906083544 | 53 | 0 | 0.0 | 0.0 | 0.00 | 0.00 | 0.00 | 77 | 1009.7 |
| 20260906083056 | 53 | 0 | 0.0 | 0.0 | 0.00 | 0.00 | 0.00 | 77 | 1009.7 |
| 20260906082541 | 53 | 0 | 0.0 | 0.0 | 0.00 | 0.00 | 0.00 | 77 | 1009.7 |
| 20260906082043 | 53 | 0 | 0.0 | 0.0 | 0.00 | 0.00 | 0.00 | 77 | 1009.5 |
| 20260906081556 | 53 | 0 | 0.0 | 0.0 | 0.00 | 0.00 | 0.00 | 77 | 1009.5 |
| 20260906081041 | 53 | 0 | 0.0 | 0.0 | 0.00 | 0.00 | 0.00 | 77 | 1009.6 |
| 20260906080541 | 52 | 0 | 0.0 | 0.0 | 0.00 | 0.00 | 0.00 | 77 | 1009.6 |
| 20260906080055 | 52 | 0 | 0.0 | 0.0 | 0.00 | 0.00 | 0.00 | 77 | 1009.6 |
| 20260906075542 | 52 | 0 | 0.0 | 0.0 | 0.00 | 0.00 | 0.00 | 77 | 1009.6 |
| 20260906075042 | 52 | 0 | 0.0 | 0.0 | 0.00 | 0.00 | 0.00 | 77 | 1009.5 |
| 20260906074609 | 52 | 0 | 0.0 | 0.0 | 0.00 | 0.00 | 0.00 | 77 | 1009.6 |
| 20260906074042 | 52 | 0 | 0.0 | 0.0 | 0.00 | 0.00 | 0.00 | 78 | 1009.5 |
| 20260906073542 | 52 | 0 | 0.0 | 0.0 | 0.00 | 0.00 | 0.00 | 78 | 1009.5 |
| 20260906073058 | 52 | 0 | 0.0 | 0.0 | 0.00 | 0.00 | 0.00 | 77 | 1009.4 |
| 20260906072543 | 52 | 0 | 0.0 | 0.0 | 0.00 | 0.00 | 0.00 | 78 | 1009.4 |
| 20260906072042 | 52 | 0 | 0.0 | 0.0 | 0.00 | 0.00 | 0.00 | 78 | 1009.5 |
| 20260906071556 | 52 | 0 | 0.0 | 0.0 | 0.00 | 0.00 | 0.00 | 79 | 1009.5 |
| 20260906071046 | 52 | 0 | 0.0 | 0.0 | 0.00 | 0.00 | 0.00 | 79 | 1009.4 |
| 20260906070542 | 51 | 0 | 0.0 | 0.0 | 0.00 | 0.00 | 0.00 | 79 | 1009.4 |
| 20260906070103 | 51 | 0 | 0.0 | 0.0 | 0.00 | 0.00 | 0.00 | 79 | 1009.4 |
| 20260906065543 | 51 | 0 | 0.0 | 0.0 | 0.00 | 0.00 | 0.00 | 79 | 1009.3 |
| 20260906065042 | 51 | 0 | 0.0 | 0.0 | 0.00 | 0.00 | 0.00 | 79 | 1009.4 |
| 20260906064556 | 51 | 0 | 0.0 | 2.0 | 0.00 | 0.00 | 0.00 | 80 | 1009.3 |
| 20260906064044 | 51 | 0 | 0.0 | 2.0 | 0.00 | 0.00 | 0.00 | 80 | 1009.3 |
| 20260906063545 | 51 | 0 | 0.0 | 0.0 | 0.00 | 0.00 | 0.00 | 80 | 1009.3 |
| 20260906063103 | 51 | 0 | 0.0 | 0.0 | 0.00 | 0.00 | 0.00 | 80 | 1009.3 |
| 20260906062543 | 51 | 0 | 0.0 | 0.0 | 0.00 | 0.00 | 0.00 | 81 | 1009.2 |
| 20260906062046 | 50 | 0 | 0.0 | 0.0 | 0.00 | 0.00 | 0.00 | 81 | 1009.3 |
| 20260906061607 | 50 | 0 | 0.0 | 0.0 | 0.00 | 0.00 | 0.00 | 81 | 1009.2 |
| 20260906061043 | 50 | 0 | 0.0 | 0.0 | 0.00 | 0.00 | 0.00 | 81 | 1009.2 |
| 20260906060545 | 50 | 0 | 0.0 | 4.0 | 0.00 | 0.00 | 0.00 | 81 | 1009.2 |
| 20260906060106 | 50 | 0 | 0.0 | 4.0 | 0.00 | 0.00 | 0.00 | 81 | 1009.2 |
| 20260906055546 | 50 | 27 | 0.0 | 2.0 | 0.00 | 0.00 | 0.00 | 82 | 1009.2 |
| 20260906055044 | 50 | 0 | 0.0 | 2.0 | 0.00 | 0.00 | 0.00 | 82 | 1009.1 |
| 20260906054557 | 50 | 0 | 0.0 | 2.0 | 0.00 | 0.00 | 0.00 | 82 | 1009.0 |
| 20260906054049 | 50 | 0 | 0.0 | 0.0 | 0.00 | 0.00 | 0.00 | 82 | 1009.1 |
| 20260906053544 | 50 | 0 | 0.0 | 0.0 | 0.00 | 0.00 | 0.00 | 82 | 1009.2 |
| 20260906053104 | 49 | 0 | 0.0 | 0.0 | 0.00 | 0.00 | 0.00 | 82 | 1009.1 |
| 20260906052547 | 49 | 0 | 0.0 | 0.0 | 0.00 | 0.00 | 0.00 | 82 | 1009.0 |
| 20260906052044 | 49 | 0 | 0.0 | 0.0 | 0.00 | 0.00 | 0.00 | 82 | 1009.0 |
| 20260906051557 | 49 | 0 | 0.0 | 0.0 | 0.00 | 0.00 | 0.00 | 82 | 1008.9 |
| 20260906051047 | 49 | 0 | 0.0 | 0.0 | 0.00 | 0.00 | 0.00 | 82 | 1009.0 |
| 20260906050545 | 49 | 0 | 0.0 | 0.0 | 0.00 | 0.00 | 0.00 | 83 | 1008.9 |
| 20260906050114 | 49 | 0 | 0.0 | 0.0 | 0.00 | 0.00 | 0.00 | 82 | 1008.8 |
| 20260906045543 | 49 | 0 | 0.0 | 0.0 | 0.00 | 0.00 | 0.00 | 83 | 1008.7 |
| 20260906045043 | 49 | 0 | 0.0 | 0.0 | 0.00 | 0.00 | 0.00 | 83 | 1008.7 |
| 20260906044559 | 49 | 0 | 0.0 | 0.0 | 0.00 | 0.00 | 0.00 | 82 | 1008.7 |
| 20260906044046 | 49 | 0 | 0.0 | 0.0 | 0.00 | 0.00 | 0.00 | 82 | 1008.6 |
| 20260906043543 | 48 | 0 | 0.0 | 1.0 | 0.00 | 0.00 | 0.00 | 82 | 1008.5 |
| 20260906043059 | 48 | 0 | 0.0 | 3.0 | 0.00 | 0.00 | 0.00 | 82 | 1008.5 |
| 20260906042544 | 48 | 0 | 0.0 | 3.0 | 0.00 | 0.00 | 0.00 | 82 | 1008.4 |
| 20260906042044 | 48 | 0 | 0.0 | 0.0 | 0.00 | 0.00 | 0.00 | 82 | 1008.4 |
| 20260906041553 | 48 | 0 | 0.0 | 0.0 | 0.00 | 0.00 | 0.00 | 82 | 1008.4 |
| 20260906041044 | 48 | 0 | 0.0 | 0.0 | 0.00 | 0.00 | 0.00 | 81 | 1008.3 |
| 20260906040547 | 48 | 0 | 0.0 | 0.0 | 0.00 | 0.00 | 0.00 | 81 | 1008.2 |
| 20260906040121 | 49 | 0 | 0.0 | 0.0 | 0.00 | 0.00 | 0.00 | 81 | 1008.2 |
| 20260906035546 | 49 | 0 | 0.0 | 0.0 | 0.00 | 0.00 | 0.00 | 81 | 1008.2 |
| 20260906035044 | 49 | 0 | 0.0 | 0.0 | 0.00 | 0.00 | 0.00 | 81 | 1008.2 |
| 20260906034606 | 49 | 0 | 0.0 | 0.0 | 0.00 | 0.00 | 0.00 | 81 | 1008.1 |
| 20260906034043 | 49 | 0 | 0.0 | 0.0 | 0.00 | 0.00 | 0.00 | 81 | 1008.2 |
| 20260906033544 | 49 | 0 | 0.0 | 1.0 | 0.00 | 0.00 | 0.00 | 81 | 1008.1 |
| 20260906033100 | 49 | 0 | 0.0 | 2.0 | 0.00 | 0.00 | 0.00 | 81 | 1008.1 |
| 20260906032544 | 49 | 0 | 0.0 | 2.0 | 0.00 | 0.00 | 0.00 | 81 | 1008.1 |
| 20260906032044 | 49 | 86 | 0.0 | 2.0 | 0.00 | 0.00 | 0.00 | 81 | 1008.1 |
| 20260906031605 | 49 | 0 | 0.0 | 2.0 | 0.00 | 0.00 | 0.00 | 81 | 1008.1 |
| 20260906031044 | 49 | 88 | 0.0 | 2.0 | 0.00 | 0.00 | 0.00 | 80 | 1008.0 |
| 20260906030544 | 49 | 82 | 0.0 | 4.0 | 0.00 | 0.00 | 0.00 | 80 | 1007.9 |
| 20260906030111 | 49 | 0 | 0.0 | 4.0 | 0.00 | 0.00 | 0.00 | 80 | 1007.9 |
| 20260906025543 | 50 | 0 | 0.0 | 4.0 | 0.00 | 0.00 | 0.00 | 81 | 1008.0 |
| 20260906025043 | 50 | 0 | 0.0 | 4.0 | 0.00 | 0.00 | 0.00 | 81 | 1007.9 |
| 20260906024603 | 50 | 293 | 0.0 | 3.0 | 0.00 | 0.00 | 0.00 | 80 | 1007.9 |
| 20260906024045 | 50 | 9 | 0.0 | 4.0 | 0.00 | 0.00 | 0.00 | 81 | 1007.9 |
| 20260906023543 | 50 | 0 | 0.0 | 4.0 | 0.00 | 0.00 | 0.00 | 80 | 1007.9 |
| 20260906023103 | 50 | 303 | 0.0 | 0.0 | 0.00 | 0.00 | 0.00 | 80 | 1007.8 |
| 20260906022544 | 50 | 0 | 0.0 | 0.0 | 0.00 | 0.00 | 0.00 | 81 | 1007.8 |
| 20260906022048 | 50 | 0 | 0.0 | 3.0 | 0.00 | 0.00 | 0.00 | 80 | 1007.9 |
| 20260906021608 | 50 | 0 | 0.0 | 3.0 | 0.00 | 0.00 | 0.00 | 81 | 1007.8 |
| 20260906021043 | 50 | 0 | 1.0 | 6.0 | 0.00 | 0.00 | 0.00 | 80 | 1007.7 |
| 20260906020543 | 50 | 352 | 0.0 | 6.0 | 0.00 | 0.00 | 0.00 | 80 | 1007.7 |
| 20260906020106 | 50 | 0 | 2.0 | 9.0 | 0.00 | 0.00 | 0.00 | 80 | 1007.7 |
| 20260906015543 | 50 | 5 | 1.0 | 9.0 | 0.00 | 0.00 | 0.00 | 81 | 1007.6 |
| 20260906015044 | 50 | 265 | 1.0 | 10.0 | 0.00 | 0.00 | 0.00 | 81 | 1007.5 |
| 20260906014559 | 50 | 0 | 2.0 | 10.0 | 0.00 | 0.00 | 0.00 | 81 | 1007.5 |
| 20260906014045 | 50 | 337 | 1.0 | 10.0 | 0.00 | 0.00 | 0.00 | 81 | 1007.5 |
| 20260906013544 | 50 | 32 | 1.0 | 4.0 | 0.00 | 0.00 | 0.00 | 81 | 1007.6 |
| 20260906013055 | 50 | 0 | 0.0 | 3.0 | 0.00 | 0.00 | 0.00 | 81 | 1007.5 |
| 20260906012545 | 50 | 252 | 0.0 | 2.0 | 0.00 | 0.00 | 0.00 | 82 | 1007.5 |
| 20260906012043 | 50 | 352 | 0.0 | 3.0 | 0.00 | 0.00 | 0.00 | 82 | 1007.5 |
| 20260906011603 | 50 | 0 | 0.0 | 3.0 | 0.00 | 0.00 | 0.00 | 82 | 1007.4 |
| 20260906011046 | 50 | 144 | 0.0 | 4.0 | 0.00 | 0.00 | 0.00 | 81 | 1007.4 |
| 20260906010543 | 50 | 352 | 0.0 | 4.0 | 0.00 | 0.00 | 0.00 | 81 | 1007.4 |
| 20260906010108 | 50 | 0 | 0.0 | 3.0 | 0.00 | 0.00 | 0.00 | 81 | 1007.3 |
| 20260906005544 | 50 | 0 | 0.0 | 3.0 | 0.00 | 0.00 | 0.00 | 81 | 1007.3 |
| 20260906005043 | 50 | 311 | 0.0 | 2.0 | 0.00 | 0.00 | 0.00 | 81 | 1007.2 |
| 20260906004600 | 50 | 0 | 0.0 | 0.0 | 0.00 | 0.00 | 0.00 | 81 | 1007.1 |
| 20260906004043 | 50 | 0 | 0.0 | 2.0 | 0.00 | 0.00 | 0.00 | 81 | 1007.1 |
| 20260906003544 | 50 | 0 | 0.0 | 3.0 | 0.00 | 0.00 | 0.00 | 81 | 1007.1 |
| 20260906003105 | 50 | 0 | 0.0 | 3.0 | 0.00 | 0.00 | 0.00 | 81 | 1007.0 |
| 20260906002543 | 50 | 0 | 0.0 | 3.0 | 0.00 | 0.00 | 0.00 | 81 | 1007.0 |
| 20260906002047 | 50 | 319 | 0.0 | 4.0 | 0.00 | 0.00 | 0.00 | 81 | 1006.9 |
| 20260906001612 | 50 | 292 | 1.0 | 4.0 | 0.00 | 0.00 | 0.00 | 81 | 1006.8 |
| 20260906001043 | 50 | 0 | 0.0 | 3.0 | 0.00 | 0.00 | 0.00 | 81 | 1006.9 |
| 20260906000543 | 50 | 0 | 0.0 | 0.0 | 0.00 | 0.00 | 0.00 | 81 | 1006.8 |
| 20260905235543 | 50 | 0 | 0.0 | 2.0 | 0.00 | 0.00 | 0.00 | 81 | 1006.8 |
| 20260905235043 | 50 | 0 | 0.0 | 2.0 | 0.00 | 0.00 | 0.00 | 81 | 1006.8 |
| 20260905234559 | 50 | 5 | 0.0 | 2.0 | 0.00 | 0.00 | 0.00 | 81 | 1006.7 |
| 20260905234043 | 50 | 0 | 0.0 | 2.0 | 0.00 | 0.00 | 0.00 | 81 | 1006.7 |
| 20260905233545 | 51 | 246 | 0.0 | 1.0 | 0.00 | 0.00 | 0.00 | 81 | 1006.7 |
| 20260905233112 | 51 | 0 | 0.0 | 1.0 | 0.00 | 0.00 | 0.00 | 81 | 1006.7 |
| 20260905232543 | 51 | 0 | 0.0 | 3.0 | 0.00 | 0.00 | 0.00 | 81 | 1006.6 |
| 20260905232043 | 51 | 0 | 0.0 | 3.0 | 0.00 | 0.00 | 0.00 | 81 | 1006.6 |
| 20260905231554 | 51 | 0 | 0.0 | 3.0 | 0.00 | 0.00 | 0.00 | 81 | 1006.6 |
| 20260905231045 | 51 | 0 | 0.0 | 0.0 | 0.00 | 0.00 | 0.00 | 81 | 1006.6 |
| 20260905230543 | 51 | 0 | 0.0 | 1.0 | 0.00 | 0.00 | 0.00 | 81 | 1006.6 |
| 20260905230108 | 51 | 0 | 0.0 | 1.0 | 0.00 | 0.00 | 0.00 | 81 | 1006.6 |
| 20260905225543 | 51 | 0 | 0.0 | 2.0 | 0.00 | 0.00 | 0.00 | 82 | 1006.6 |
| 20260905225043 | 51 | 0 | 0.0 | 2.0 | 0.00 | 0.00 | 0.00 | 81 | 1006.5 |
| 20260905224601 | 51 | 0 | 0.0 | 2.0 | 0.00 | 0.00 | 0.00 | 81 | 1006.5 |
| 20260905224045 | 51 | 0 | 0.0 | 0.0 | 0.00 | 0.00 | 0.00 | 80 | 1006.5 |
| 20260905223543 | 51 | 0 | 0.0 | 0.0 | 0.00 | 0.00 | 0.00 | 80 | 1006.5 |
| 20260905223054 | 51 | 0 | 0.0 | 0.0 | 0.00 | 0.00 | 0.00 | 80 | 1006.5 |
| 20260905222544 | 51 | 0 | 0.0 | 0.0 | 0.00 | 0.00 | 0.00 | 80 | 1006.4 |
| 20260905222043 | 51 | 0 | 0.0 | 1.0 | 0.00 | 0.00 | 0.00 | 79 | 1006.4 |
| 20260905221606 | 51 | 0 | 0.0 | 1.0 | 0.00 | 0.00 | 0.00 | 79 | 1006.4 |
| 20260905221043 | 51 | 0 | 0.0 | 1.0 | 0.00 | 0.00 | 0.00 | 79 | 1006.4 |
| 20260905220547 | 51 | 0 | 0.0 | 0.0 | 0.00 | 0.00 | 0.00 | 79 | 1006.4 |
| 20260905220104 | 51 | 0 | 0.0 | 0.0 | 0.00 | 0.00 | 0.00 | 79 | 1006.2 |
| 20260905215543 | 51 | 0 | 0.0 | 0.0 | 0.00 | 0.00 | 0.00 | 79 | 1006.2 |
| 20260905215043 | 51 | 0 | 0.0 | 0.0 | 0.00 | 0.00 | 0.00 | 79 | 1006.1 |
| 20260905214556 | 52 | 0 | 0.0 | 0.0 | 0.00 | 0.00 | 0.00 | 79 | 1006.1 |
| 20260905214044 | 52 | 0 | 0.0 | 0.0 | 0.00 | 0.00 | 0.00 | 79 | 1006.0 |
| 20260905213544 | 52 | 0 | 0.0 | 0.0 | 0.00 | 0.00 | 0.00 | 79 | 1005.9 |
| 20260905213110 | 52 | 0 | 0.0 | 0.0 | 0.00 | 0.00 | 0.00 | 79 | 1005.8 |
| 20260905212543 | 52 | 0 | 0.0 | 0.0 | 0.00 | 0.00 | 0.00 | 79 | 1005.8 |
| 20260905212135 | 52 | 0 | 0.0 | 0.0 | 0.00 | 0.00 | 0.00 | 79 | 1005.7 |
| 20260905211604 | 52 | 0 | 0.0 | 0.0 | 0.00 | 0.00 | 0.00 | 79 | 1005.7 |
| 20260905211041 | 52 | 0 | 0.0 | 0.0 | 0.00 | 0.00 | 0.00 | 78 | 1005.8 |
| 20260905210543 | 52 | 0 | 0.0 | 0.0 | 0.00 | 0.00 | 0.00 | 78 | 1005.7 |
| 20260905210110 | 52 | 0 | 0.0 | 0.0 | 0.00 | 0.00 | 0.00 | 78 | 1005.7 |
| 20260905205541 | 52 | 0 | 0.0 | 0.0 | 0.00 | 0.00 | 0.00 | 78 | 1005.7 |
| 20260905205042 | 52 | 0 | 0.0 | 0.0 | 0.00 | 0.00 | 0.00 | 77 | 1005.7 |
| 20260905204600 | 52 | 0 | 0.0 | 0.0 | 0.00 | 0.00 | 0.00 | 77 | 1005.6 |
| 20260905204044 | 53 | 0 | 0.0 | 0.0 | 0.00 | 0.00 | 0.00 | 77 | 1005.6 |
| 20260905203544 | 53 | 0 | 0.0 | 0.0 | 0.00 | 0.00 | 0.00 | 77 | 1005.5 |
| 20260905203058 | 53 | 0 | 0.0 | 0.0 | 0.00 | 0.00 | 0.00 | 77 | 1005.4 |
| 20260905202541 | 53 | 0 | 0.0 | 0.0 | 0.00 | 0.00 | 0.00 | 76 | 1005.4 |
| 20260905202041 | 53 | 0 | 0.0 | 0.0 | 0.00 | 0.00 | 0.00 | 77 | 1005.3 |
| 20260905201604 | 53 | 0 | 0.0 | 0.0 | 0.00 | 0.00 | 0.00 | 77 | 1005.3 |
| 20260905201041 | 53 | 0 | 0.0 | 0.0 | 0.00 | 0.00 | 0.00 | 77 | 1005.2 |
| 20260905200539 | 54 | 0 | 0.0 | 0.0 | 0.00 | 0.00 | 0.00 | 77 | 1005.2 |
| 20260905200116 | 54 | 0 | 0.0 | 2.0 | 0.00 | 0.00 | 0.00 | 77 | 1005.2 |
| 20260905195541 | 54 | 0 | 0.0 | 2.0 | 0.00 | 0.00 | 0.00 | 77 | 1005.1 |
| 20260905195041 | 54 | 0 | 0.0 | 0.0 | 0.00 | 0.00 | 0.00 | 77 | 1005.1 |
| 20260905194610 | 54 | 0 | 0.0 | 2.0 | 0.00 | 0.00 | 0.00 | 77 | 1005.0 |
| 20260905194041 | 54 | 0 | 0.0 | 3.0 | 0.00 | 0.00 | 0.00 | 76 | 1004.9 |
| 20260905193540 | 54 | 275 | 0.0 | 3.0 | 0.00 | 0.00 | 0.00 | 76 | 1004.9 |
| 20260905193054 | 54 | 281 | 0.0 | 2.0 | 0.00 | 0.00 | 0.00 | 76 | 1004.9 |
| 20260905192541 | 54 | 0 | 0.0 | 0.0 | 0.00 | 0.00 | 0.00 | 75 | 1004.9 |
| 20260905192042 | 55 | 0 | 0.0 | 0.0 | 0.00 | 0.00 | 0.00 | 75 | 1004.9 |
| 20260905191552 | 55 | 0 | 0.0 | 0.0 | 0.00 | 0.00 | 0.00 | 75 | 1004.8 |
| 20260905191040 | 55 | 0 | 0.0 | 0.0 | 0.00 | 0.00 | 0.00 | 75 | 1004.8 |
| 20260905190542 | 55 | 0 | 0.0 | 0.0 | 0.00 | 0.00 | 0.00 | 76 | 1004.7 |
| 20260905185544 | 55 | 0 | 0.0 | 0.0 | 0.00 | 0.00 | 0.00 | 75 | 1004.7 |
| 20260905185046 | 56 | 0 | 0.0 | 0.0 | 0.00 | 0.00 | 0.00 | 75 | 1004.8 |
| 20260905184611 | 56 | 0 | 0.0 | 0.0 | 0.00 | 0.00 | 0.00 | 74 | 1004.8 |
| 20260905184041 | 56 | 0 | 0.0 | 0.0 | 0.00 | 0.00 | 0.00 | 74 | 1004.8 |
| 20260905183543 | 56 | 0 | 0.0 | 0.0 | 0.00 | 0.00 | 0.00 | 73 | 1004.7 |
| 20260905183055 | 56 | 0 | 0.0 | 0.0 | 0.00 | 0.00 | 0.00 | 73 | 1004.7 |
| 20260905182544 | 56 | 0 | 0.0 | 0.0 | 0.00 | 0.00 | 0.00 | 72 | 1004.7 |
| 20260905182042 | 57 | 0 | 0.0 | 0.0 | 0.00 | 0.00 | 0.00 | 72 | 1004.6 |
| 20260905181608 | 57 | 0 | 0.0 | 0.0 | 0.00 | 0.00 | 0.00 | 72 | 1004.5 |
| 20260905181042 | 57 | 0 | 0.0 | 0.0 | 0.00 | 0.00 | 0.00 | 71 | 1004.4 |
| 20260905180547 | 57 | 0 | 0.0 | 0.0 | 0.00 | 0.00 | 0.00 | 71 | 1004.3 |
| 20260905180112 | 57 | 0 | 0.0 | 2.0 | 0.00 | 0.00 | 0.00 | 71 | 1004.2 |
| 20260905175543 | 57 | 0 | 0.0 | 2.0 | 0.00 | 0.00 | 0.00 | 71 | 1004.2 |
| 20260905175045 | 58 | 0 | 0.0 | 0.0 | 0.00 | 0.00 | 0.00 | 71 | 1004.2 |
| 20260905174604 | 58 | 0 | 0.0 | 0.0 | 0.00 | 0.00 | 0.00 | 71 | 1004.2 |
| 20260905174045 | 58 | 0 | 0.0 | 0.0 | 0.00 | 0.00 | 0.00 | 71 | 1004.0 |
| 20260905173543 | 58 | 0 | 0.0 | 2.0 | 0.00 | 0.00 | 0.00 | 71 | 1003.9 |
| 20260905173057 | 58 | 0 | 0.0 | 4.0 | 0.00 | 0.00 | 0.00 | 70 | 1003.8 |
| 20260905172543 | 58 | 0 | 0.0 | 4.0 | 0.00 | 0.00 | 0.00 | 70 | 1003.8 |